Dewpoint
43 44 44 44 45 44 42 39 32 38 48 38 36 34 28 29 25 26 28 27 26 23 25 23 25 23 26 30 24 24 31 33 33 30 31 34 31 33 39 33 32 35 36 36
42 43 44 44 45 43 39 28 26 36 44 40 34 30 27 27 26 25 26 27 26 25 23 24 23 23 25 30 22 25 29 32 30 27 32 36 34 34 37 38 38 34 33 37
42 43 43 44 44 43 40 31 38 28 30 31 29 27 23 25 27 26 27 25 25 23 21 23 23 21 25 24 22 32 34 31 32 30 30 31 32 30 32 36 36 36 36 37
42 43 43 43 43 43 40 34 32 32 29 26 28 26 22 20 21 22 25 26 22 21 25 22 21 21 21 22 26 26 27 26 25 24 26 25 26 29 30 35 37 35 39 37
42 43 42 43 45 44 36 38 26 25 25 24 25 27 23 19 20 22 21 23 21 21 21 20 22 23 22 21 21 22 25 25 26 25 25 27 32 30 29 32 32 36 36 37
42 42 42 43 44 43 31 30 36 30 25 21 23 23 23 22 24 24 23 23 23 22 26 25 24 25 26 26 25 27 28 25 25 24 26 27 31 32 26 30 31 33 34 39
40 42 42 43 43 41 34 36 32 31 21 20 19 20 20 20 22 24 22 24 25 26 25 30 29 28 29 31 34 35 29 26 25 25 28 29 32 25 24 25 24 25 26 27
38 40 41 41 42 43 35 36 32 31 22 17 19 20 21 21 23 24 23 25 27 29 31 25 22 26 37 34 34 37 34 28 28 27 27 32 29 26 24 24 25 26 25 29
39 38 40 40 41 43 34 39 37 31 26 19 18 22 22 21 23 26 25 26 28 33 27 23 21 23 23 24 28 34 32 32 30 29 29 31 32 30 24 24 29 28 28 30
39 38 39 39 39 40 35 35 43 32 34 23 25 23 25 27 29 26 27 26 26 30 26 23 23 23 20 24 24 24 31 29 28 28 29 32 36 33 31 31 34 29 32 32
38 38 38 39 38 39 37 36 39 35 27 27 27 25 27 29 30 29 29 30 31 27 26 25 24 24 24 25 24 27 29 30 31 29 28 30 37 35 35 37 34 29 34 34
38 38 37 38 38 38 39 33 37 37 32 32 33 31 31 29 28 29 31 28 26 29 29 28 27 23 27 24 23 30 31 35 30 29 35 38 37 38 37 37 37 31 34 35
39 38 37 37 38 38 38 35 37 36 32 29 31 30 32 32 32 34 29 28 27 28 33 32 31 25 28 25 25 26 30 31 31 32 35 37 38 37 35 36 36 32 31 35
39 38 37 37 37 37 38 35 37 36 32 34 29 29 31 32 33 33 33 32 33 32 32 31 29 25 26 27 25 24 24 28 32 34 35 38 38 36 35 37 33 31 31 35
40 39 37 36 37 37 39 37 38 37 34 31 29 31 31 32 33 33 34 34 32 29 31 31 28 27 29 29 28 26 29 33 35 35 39 36 35 35 37 38 33 32 32 34
41 39 37 36 36 37 35 37 38 37 36 34 28 29 30 33 34 32 33 33 32 32 31 28 27 29 31 29 25 25 34 36 37 37 36 35 36 38 36 35 32 32 34 34
42 40 38 36 37 37 34 36 39 39 38 34 31 25 29 30 34 34 34 33 34 32 31 30 28 27 33 30 25 26 31 34 37 38 38 36 35 33 34 33 32 35 34 34
42 40 38 37 37 37 35 37 40 41 33 33 31 28 27 32 30 34 34 34 34 34 32 32 30 31 34 28 30 36 37 39 39 37 38 37 37 35 31 31 32 32 32 33
42 40 38 38 36 35 36 40 40 40 34 30 29 27 27 30 28 34 36 37 32 34 34 31 34 30 30 34 35 38 39 39 39 40 39 37 37 34 35 31 30 32 31 34
41 38 35 35 36 41 40 39 35 34 33 32 28 28 27 29 28 29 32 35 31 27 32 37 35 32 34 36 39 39 39 40 40 40 40 38 35 34 37 37 31 31 31 34
38 37 36 36 38 37 36 33 33 32 28 29 29 28 27 31 28 29 28 28 30 26 35 33 32 34 36 39 39 40 41 40 40 41 42 42 41 38 37 40 35 34 34 34
38 37 37 36 33 35 31 32 31 27 24 27 28 29 30 31 33 30 32 29 30 26 37 34 31 35 37 39 39 41 38 41 40 42 41 41 38 35 38 41 38 36 35 38
36 35 34 35 33 26 26 24 24 27 27 28 29 30 31 32 33 31 29 26 27 28 30 31 35 37 39 39 39 40 37 40 41 39 39 39 38 38 40 41 42 39 38 39
36 33 28 28 28 24 20 20 24 28 27 27 26 26 28 31 31 32 26 25 26 25 25 32 36 37 39 39 39 39 36 37 40 40 41 43 44 43 45 46 45 44 40 41
35 31 26 24 22 25 26 28 28 26 28 26 26 27 28 30 30 30 26 24 22 22 27 36 38 37 39 39 38 38 37 35 36 40 40 42 42 43 45 45 45 43 47 44
32 28 26 25 23 28 30 29 28 30 29 29 28 26 27 26 26 24 25 19 18 27 31 38 37 36 35 38 38 39 38 37 35 34 36 38 41 41 41 43 43 47 44 44
34 30 28 27 26 27 27 24 22 28 21 23 23 24 23 28 25 22 24 24 28 32 32 35 35 33 36 39 41 41 38 35 34 36 35 35 34 35 38 40 41 42 44 46
Lifted_Index
16 16 15 14 14 13 11 8 8 9 8 6 6 7 8 9 10 10 9 9 8 8 7 6 6 7 7 8 8 7 6 4 2 1 -0 -1 -1 -1 -0 1 1 1 0 -0
16 16 15 14 14 13 11 8 8 9 8 7 7 7 8 9 10 10 10 9 9 8 7 7 7 7 8 8 8 8 6 4 2 0 -0 -0 -1 -0 -0 1 1 1 0 0
16 16 15 15 14 13 11 9 8 8 8 8 7 8 8 8 9 10 10 10 9 8 7 7 7 8 8 8 9 8 6 4 2 1 1 0 0 -0 0 0 1 1 1 0
16 16 15 15 14 13 11 9 8 9 8 8 8 8 8 8 8 10 10 9 9 8 7 7 7 8 8 8 8 8 6 4 3 2 1 1 0 0 0 0 1 1 1 1
16 16 15 15 14 13 11 9 9 9 9 8 8 8 8 8 9 10 10 9 9 9 8 8 8 8 9 8 8 7 6 5 4 2 1 1 0 0 0 0 0 0 1 1
16 16 16 15 14 13 11 11 10 9 9 8 8 8 9 9 10 10 10 10 10 10 9 9 9 8 8 7 7 7 6 5 4 2 1 0 0 0 0 0 0 0 1 1
16 16 16 16 15 13 12 12 11 9 8 8 8 9 10 10 11 11 11 11 11 10 10 9 8 7 6 5 5 5 5 5 4 2 1 1 1 1 1 1 1 1 1 1
17 16 16 16 15 14 13 12 11 10 8 9 9 10 10 11 11 11 11 11 11 10 9 8 6 5 4 4 4 4 4 4 4 2 1 0 1 1 1 1 1 2 2 2
17 17 16 16 16 15 14 13 12 10 9 10 10 10 10 11 11 11 11 11 11 10 8 7 6 5 4 4 4 4 3 4 3 2 1 1 1 1 1 1 1 2 2 2
17 17 16 16 16 15 14 13 12 11 11 11 12 11 11 11 11 10 10 11 10 9 8 7 6 6 5 4 4 3 3 3 3 2 1 1 1 1 1 1 1 2 2 2
16 16 16 16 16 15 14 13 13 12 11 12 12 12 12 11 11 10 10 10 9 9 8 8 7 7 6 5 4 3 3 3 3 3 2 1 1 1 1 1 2 2 2 2
16 16 16 16 16 15 14 13 13 12 11 11 12 12 12 12 12 11 10 10 10 9 9 8 8 7 6 6 5 4 4 4 4 3 2 1 1 1 2 2 2 3 3 2
15 15 15 15 15 15 14 13 12 12 11 10 11 12 12 12 12 11 10 10 10 10 10 9 8 8 7 6 6 5 5 5 4 3 2 1 1 2 3 3 3 4 3 3
15 15 14 14 15 14 13 13 12 12 11 10 10 11 11 11 11 11 10 10 10 10 9 9 8 8 7 7 7 7 6 6 4 3 2 2 2 2 3 3 4 4 4 3
14 14 14 14 14 14 13 12 12 12 11 9 9 10 10 10 10 10 10 10 10 9 8 8 8 7 8 8 7 7 7 6 4 3 3 3 3 3 3 3 4 4 4 3
14 13 13 13 13 13 12 11 12 12 11 10 9 9 9 9 9 9 9 9 9 8 7 6 6 7 7 7 7 7 7 6 5 4 4 4 3 3 3 4 4 5 4 3
13 13 13 13 13 12 11 11 12 12 12 10 8 8 8 8 8 8 8 8 7 7 6 5 5 6 7 7 6 7 7 7 6 5 4 4 4 4 4 4 5 5 4 4
13 13 13 12 12 12 11 12 12 12 11 10 8 7 7 7 7 7 7 7 6 5 5 4 4 5 6 6 6 6 6 6 5 5 4 4 4 4 4 4 5 5 4 4
12 12 12 11 11 11 11 12 12 11 11 9 8 7 7 7 7 6 6 5 5 4 4 4 4 5 5 5 6 6 5 5 4 4 4 4 4 4 4 4 4 5 5 5
12 11 11 11 11 11 11 10 10 10 9 9 8 7 7 6 6 6 5 5 4 4 3 4 4 4 5 5 6 5 5 4 3 3 3 3 3 3 3 3 4 5 5 5
10 10 10 10 10 10 10 9 9 8 8 8 7 7 6 6 6 6 5 4 4 3 3 4 4 4 5 5 5 5 4 3 3 3 3 3 3 3 3 3 4 4 5 5
9 9 9 9 9 9 8 8 8 7 7 6 6 6 6 6 6 5 4 4 4 3 3 4 4 5 5 5 5 5 4 3 3 3 3 3 3 2 2 2 3 4 4 5
8 8 8 8 8 8 7 7 6 6 6 6 5 5 5 5 5 5 4 4 4 3 3 4 5 5 6 6 6 5 4 3 3 3 3 2 2 2 2 2 2 3 3 4
7 7 7 7 7 7 6 6 6 6 6 5 5 5 4 4 4 4 4 4 4 3 3 3 5 5 6 6 6 6 5 4 3 3 2 2 2 2 2 2 2 2 2 3
6 6 6 6 6 6 5 5 5 5 6 5 5 4 4 4 4 3 3 3 3 3 3 3 4 5 6 6 6 6 5 5 4 3 3 2 2 2 2 2 2 2 2 2
6 5 5 5 5 5 5 5 5 6 6 6 5 4 4 3 3 3 3 3 3 3 3 3 4 5 5 6 6 6 6 5 5 4 4 3 3 3 2 2 2 2 2 2
6 5 5 5 4 4 4 5 5 6 6 6 5 5 4 3 3 2 2 3 3 3 3 3 3 4 5 5 6 6 6 6 5 5 5 4 4 4 3 3 3 2 2 2